SCP
0 0 0 0 0 0 0 0 0 0 0 0 0 0 0 0 0 0 0 0 0 0
0 0 0 0 0 0 0 0 0 0 0 0 0 0 0 0 0 0 -0 -0 0 0
0 0 0 0 0 0 0 0 0 0 0 0 0 0 0 0 0 0 0 0 -0 0
0 0 0 0 0 0 0 0 0 0 0 0 0 0 0 0 0 0 0 -0 -0 0
0 0 0 0 0 0 0 0 0 0 0 0 0 0 0 0 0 0 0 0 0 0
0 0 0 0 0 0 0 0 0 0 0 0 0 0 0 0 0 0 0 0 0 0
0 0 0 0 0 0 0 0 0 0 0 -0 -0 -0 0 -0 -0 0 0 0 0 -0
0 0 0 0 0 -0 -0 -0 -0 -0 -0 -0 -0 -0 0 -0 -0 -0 0 0 -0 -0
0 0 0 0 0 0 0 0 -0 -0 -0 -0 0 -0 0 0 -0 -0 -0 0 0 0
0 0 0 0 0 0 0 0 0 0 0 0 0 0 0 0 0 0 0 0 0 0
0 0 0 0 0 0 0 0 0 0 0 0 0 0 0 0 0 0 0 0 0 0
0 0 0 0 0 0 0 0 0 0 0 0 0 0 0 0 0 0 0 0 0 0
0 0 0 0 0 0 0 0 0 0 0 0 0 0 0 0 0 0 0 0 0 0
0 0 0 0 0 0 0 0 0 0 0 0 0 0 0 0 0 0 0 0 0 0
Wind_Speed_500mb
33 36 40 39 37 30 28 29 27 25 23 25 20 31 30 23 26 25 25 23 16 12
33 35 38 39 36 33 29 28 23 24 26 24 20 25 18 27 29 22 19 18 6 12
38 37 38 41 34 27 26 22 21 24 26 22 18 24 17 25 18 18 16 14 12 17
33 33 32 33 32 30 24 22 23 25 24 20 15 19 18 11 12 10 8 7 12 17
30 32 32 30 28 27 28 21 18 19 21 16 13 11 8 8 2 2 3 8 13 13
33 40 41 36 32 25 25 16 12 14 20 15 11 12 12 14 13 12 14 16 13 10
41 41 36 31 26 20 10 6 12 16 21 24 23 20 19 20 23 22 21 20 17 16
43 43 34 27 22 22 23 14 13 17 23 22 20 20 20 18 16 19 17 15 15 13
32 43 37 30 26 29 23 8 12 17 17 18 18 18 17 17 15 11 4 5 8 13
27 39 39 33 27 23 26 23 20 18 14 11 17 19 19 18 16 11 9 9 8 8
31 40 40 36 33 27 24 25 24 20 15 16 15 15 18 18 15 15 19 18 12 7
34 36 43 35 32 29 27 28 29 32 26 23 27 24 26 22 21 22 23 25 24 29
32 32 39 36 35 37 37 36 36 37 37 35 34 33 30 28 28 28 29 24 24 25
30 32 33 30 26 31 34 35 36 37 36 32 30 29 28 35 42 38 29 21 25 27
Wind_Direction_500mb
326 325 324 324 327 327 323 331 342 342 332 332 332 315 291 271 259 270 265 253 235 262
322 326 327 329 318 307 320 320 326 335 332 320 325 346 311 281 267 274 234 213 225 262
328 327 330 336 333 317 313 313 320 333 336 325 323 339 340 338 245 234 217 238 231 267
336 339 341 345 346 338 330 325 327 325 324 327 333 15 20 18 100 132 190 214 263 275
337 336 335 333 336 342 338 326 319 314 296 303 322 350 351 28 96 17 340 306 297 289
337 333 327 320 317 312 317 314 335 348 359 357 340 317 311 303 306 307 319 325 324 317
347 349 339 330 331 341 303 301 324 338 336 314 311 304 291 284 285 289 293 295 295 296
3 356 7 8 360 339 327 336 341 330 320 327 334 328 320 308 290 270 270 274 291 291
22 26 26 26 18 24 32 26 347 340 359 24 19 25 39 47 53 56 28 313 299 311
15 12 17 14 30 44 46 41 27 28 44 39 60 54 52 45 36 18 343 319 330 26
16 14 19 26 35 31 32 43 35 42 54 54 42 33 15 19 31 35 48 62 71 68
15 24 31 42 48 47 48 45 47 54 60 49 50 49 53 54 56 59 64 70 72 92
33 35 36 42 54 57 55 55 58 61 64 58 54 51 49 56 58 64 69 73 79 87
41 38 37 43 52 55 52 55 57 58 57 59 55 49 54 70 80 65 54 70 92 91
Wind_Speed_850mb
33 36 40 39 37 30 28 29 27 25 23 25 20 31 30 23 26 25 25 23 16 12
33 35 38 39 36 33 29 28 23 24 26 24 20 25 18 27 29 22 19 18 6 12
38 37 38 41 34 27 26 22 21 24 26 22 18 24 17 25 18 18 16 14 12 17
33 33 32 33 32 30 24 22 23 25 24 20 15 19 18 11 12 10 8 7 12 17
30 32 32 30 28 27 28 21 18 19 21 16 13 11 8 8 2 2 3 8 13 13
33 40 41 36 32 25 25 16 12 14 20 15 11 12 12 14 13 12 14 16 13 10
41 41 36 31 26 20 10 6 12 16 21 24 23 20 19 20 23 22 21 20 17 16
43 43 34 27 22 22 23 14 13 17 23 22 20 20 20 18 16 19 17 15 15 13
32 43 37 30 26 29 23 8 12 17 17 18 18 18 17 17 15 11 4 5 8 13
27 39 39 33 27 23 26 23 20 18 14 11 17 19 19 18 16 11 9 9 8 8
31 40 40 36 33 27 24 25 24 20 15 16 15 15 18 18 15 15 19 18 12 7
34 36 43 35 32 29 27 28 29 32 26 23 27 24 26 22 21 22 23 25 24 29
32 32 39 36 35 37 37 36 36 37 37 35 34 33 30 28 28 28 29 24 24 25
30 32 33 30 26 31 34 35 36 37 36 32 30 29 28 35 42 38 29 21 25 27
Wind_Direction_850mb
326 325 324 324 327 327 323 331 342 342 332 332 332 315 291 271 259 270 265 253 235 262
322 326 327 329 318 307 320 320 326 335 332 320 325 346 311 281 267 274 234 213 225 262
328 327 330 336 333 317 313 313 320 333 336 325 323 339 340 338 245 234 217 238 231 267
336 339 341 345 346 338 330 325 327 325 324 327 333 15 20 18 100 132 190 214 263 275
337 336 335 333 336 342 338 326 319 314 296 303 322 350 351 28 96 17 340 306 297 289
337 333 327 320 317 312 317 314 335 348 359 357 340 317 311 303 306 307 319 325 324 317
347 349 339 330 331 341 303 301 324 338 336 314 311 304 291 284 285 289 293 295 295 296
3 356 7 8 360 339 327 336 341 330 320 327 334 328 320 308 290 270 270 274 291 291
22 26 26 26 18 24 32 26 347 340 359 24 19 25 39 47 53 56 28 313 299 311
15 12 17 14 30 44 46 41 27 28 44 39 60 54 52 45 36 18 343 319 330 26
16 14 19 26 35 31 32 43 35 42 54 54 42 33 15 19 31 35 48 62 71 68
15 24 31 42 48 47 48 45 47 54 60 49 50 49 53 54 56 59 64 70 72 92
33 35 36 42 54 57 55 55 58 61 64 58 54 51 49 56 58 64 69 73 79 87
41 38 37 43 52 55 52 55 57 58 57 59 55 49 54 70 80 65 54 70 92 91